Location: Caltech
(34.1382°N, 118.1253°W)
Time: 05:59:33
(UTC-08:00)

Cosmos 2084 - Visible Passes

Search period start: 30 January 2015 00:00
Search period end: 09 February 2015 00:00
Orbit: 557 x 639 km, 62.8° (Epoch: 29 January)

Date Brightness Start Highest point End Pass type
(mag) Time Alt. Az. Time Alt. Az. Time Alt. Az.
30 Jan 3.6 17:44:04 10° NNW 17:48:37 67° ENE 17:53:11 10° SE visible
30 Jan 6.9 19:26:37 10° W 19:27:52 11° WSW 19:28:48 10° WSW visible
31 Jan 4.2 17:54:32 10° NW 17:59:03 63° WSW 18:03:35 10° SSE visible
01 Feb 5.7 18:05:20 10° NW 18:09:25 32° WSW 18:13:28 10° S visible
02 Feb 6.8 18:16:45 10° WNW 18:19:44 17° WSW 18:22:34 10° SSW visible
06 Feb 6.9 05:32:32 10° SE 05:33:58 12° ESE 05:35:40 10° E visible
07 Feb 6.0 05:40:55 10° SSE 05:44:15 24° ESE 05:47:42 10° ENE visible
08 Feb 4.4 05:50:33 10° SSW 05:54:33 49° ESE 05:58:40 10° NE visible
